Airfield :







YOU CAN JOIN US ON...

 
LOGIN :

Register | Disclaimer

   EN    FR    IT 

 









Legend :    VFR   Marginal VFR   IFR   Intensive IFR   Very Intensive IFR
Visi :
Ceiling :
>= 8 km
>= 3000ft
5 to 8 km
1000 to 3000 ft
1500m to 5 km
500 to 1000 ft
800 to 1500m
200 to 500 ft
< 800m
< 200 ft
Symbols :   Thunderstorms  Fog  Heavy snow  Heavy precipitations  Wind > 20 kt







- Airport Elevation : 90 ft
- IATA code : YHU


CYHU - Montréal Saint-Hubert

CURRENT METAR :
  • 200900Z AUTO 18004KT 9SM CLR 10/08 A3018 RMK SLP223

EXPIRED METARs :
  • 200800Z AUTO 18005KT 9SM CLR 10/08 A3018 RMK SLP223
  • 200700Z AUTO 16004KT 9SM CLR 11/07 A3019 RMK SLP224

TAF TAF CYHU
Valid from the 20 at 06:00 until the 21 at 06:00 UTC


200538Z 2006/2106 21005KT P6SM BKN250
BECMG 2011/2013 22008KT
BECMG 2014/2016 25012KT
FM210000 26008KT P6SM SCT240 RMK FCST BASED ON AUTO OBS. NXT FCST BY 201200Z
No reported NOTAMs for that airfield.



MET'MAP, your aeronautical weather chart ! - Copyright ORBIFLY December 2007 - Disclaimer

ORBIFLY MET'MAP TEAM :

Programming & Development : Alexandra Zaïnal
Concept & Development : Baudouin d'Aumeries
Co-Development & Prog : Marc-Olivier Méhu
Technical & hardware support : Manuel Goepfert

Contact : metmap@orbifly.com




SOURCES & CREDITS :

   NOAA